Simultaneous Nadir Overpasses (SNOs) Predictions

Prediction of SNOs between GOES-15 and TERRA Satellite Orbit:

Table of predicted SNOs for the next 14.0 days since TLE Epoch: 3/26/2022
Index Date Time (GOES-15) GOES-15 Lat,Lon TERRA Lat,Lon Distance(km) Time Diff (sec)
1 03/27/2022 18:48:00 -0.06,-128.33 -0.47,-126.36 223.47 80
2 03/28/2022 07:06:43 0.07,-128.31 -0.64,-131.55 369.12 80
3 03/30/2022 06:54:28 0.07,-128.36 0.03,-128.60 27.89 80
4 04/01/2022 06:44:52 0.07,-128.40 0.65,-125.64 313.46 80
5 04/01/2022 19:03:27 -0.07,-128.44 0.40,-130.81 268.83 80
6 04/03/2022 18:53:51 -0.07,-128.48 -0.23,-127.85 72.05 80
7 04/05/2022 18:41:35 -0.08,-128.51 -0.86,-124.89 412.24 80
8 04/06/2022 07:00:17 0.09,-128.49 -0.24,-130.08 180.57 80
9 04/08/2022 06:50:42 0.09,-128.51 0.41,-127.12 158.89 80
10 04/08/2022 19:09:15 -0.10,-128.55 0.70,-132.27 424.06 80
